Location: Observatoire
(46.1952°N, 5.3391°E)
Time: 08:24:14
(UTC+01:00)

Altair - Pass Details

Date: 25 February 2026
Orbit: 1502 x 1682 km, 47.2° (Epoch: 9 March)

Event Time Altitude Azimuth Distance (km) Brightness Sun altitude
Rises 09:17:22 0° 292° (WNW) 4,679 9.4 17.0°
Reaches altitude 10° 09:20:29 10° 287° (WNW) 3,713 9.0 17.5°
Maximum altitude 09:29:23 50° 216° (SW) 1,927 8.3 18.7°
Drops below altitude 10° 09:38:37 10° 144° (SE) 3,835 11.3 20.0°
Sets 09:41:53 0° 140° (SE) 4,842 11.6 20.4°
